[[{"header":{"parameterUnit":"m.s-1","parameterCategory":1,"la1":30.2991,"la2":30.254,"lo1":-89.0895,"lo2":-89.0444,"dy":0.0017,"dx":0.0017,"nx":28,"ny":28,"refTime":"2023-09-06T03:00:00:Z","depth":0,"parameterNumber":2,"parameterNumberName":"U-component_of_WINDS"},"data":[0,0,0,0,0,0,0,0,0,0,0,0,0,0,0,0,0,0,0,0,0,0,0,0,0,0,0,0,0,0,0,0,0,0,0,0,0,0,0,0,0,0,0,0,0,0,0,0,0,0,0,0,0,0,0,0,0,0,1.2536,1.2536,0,1.2607,1.2608,1.2609,1.2645,1.2645,1.2645,1.2645,1.2717,1.2719,1.2721,0,0,0,0,0,0,0,0,0,0,0,0,0,1.2428,1.2429,1.2536,1.2536,1.2537,1.2607,1.2608,1.2609,1.2645,1.2645,1.2645,1.2645,1.2716,1.2718,1.2721,0,0,0,0,0,0,0,0,0,0,0,0,0,1.2484,1.243,1.2535,1.2564,1.2567,1.2607,1.2608,1.2609,1.2645,1.2645,1.2645,1.2645,1.2716,1.2718,1.2721,1.2737,0,0,1.273,1.2731,0,0,0,0,0,0,0,0,1.2481,1.2488,1.2559,1.2562,1.2566,1.2617,1.2596,1.2652,1.2645,1.2615,1.2645,1.2645,1.2684,1.2689,1.2702,1.2741,1.2744,1.273,1.2732,1.2733,1.2734,0,0,0,0,0,0,0,1.2477,1.2485,1.2564,1.256,1.2564,1.2572,1.258,1.2607,1.2648,1.2618,1.2621,1.2629,1.2685,1.27,1.2704,1.2745,1.273,1.2732,1.2734,1.2735,1.28,1.28,0,0,0,0,0,0,1.2469,1.2482,1.2562,1.2566,1.2523,1.2574,1.2583,1.2601,1.2648,1.2655,1.2629,1.263,1.2695,1.2701,1.2707,1.2729,1.2733,1.2735,1.2737,1.28,1.28,1.28,0,0,0,0,0,0,1.2466,1.2476,1.2559,1.2525,1.2536,1.2576,1.2595,1.2602,1.2616,1.2656,1.2664,1.2636,1.2695,1.2703,1.273,1.2732,1.2737,1.2739,1.28,1.28,1.28,1.2774,0,0,0,0,0,0,1.2463,1.2475,1.2482,1.2525,1.2538,1.2581,1.2595,1.2603,1.2621,1.2624,1.2665,1.2672,1.2696,1.2725,1.2732,1.2736,1.2741,1.28,1.28,1.28,1.2774,1.2773,1.2771,0,0,0,0,0,1.2459,1.2471,1.2482,1.2491,1.2548,1.2581,1.2588,1.2616,1.2621,1.2628,1.2654,1.267,1.2731,1.2728,1.2736,1.2741,1.28,1.28,1.28,1.2775,1.2773,1.2771,0,0,0,0,0,0,1.2427,1.2477,1.249,1.2516,1.2544,1.2587,1.2597,1.2613,1.264,1.2641,1.2674,1.2683,1.2706,1.2726,1.2722,1.2759,1.2767,1.2768,1.2745,1.2743,1.2742,1.2737,1.2744,0,0,0,0,0,1.2423,1.2447,1.2489,1.2508,1.2522,1.2557,1.2572,1.2591,1.2621,1.2633,1.2661,1.2688,1.2714,1.273,1.2755,1.2777,1.2786,1.2784,1.2783,1.2781,1.2782,1.2795,1.2795,1.28,1.28,1.28,0,0,1.2415,1.2446,1.2458,1.2503,1.2526,1.2549,1.2566,1.259,1.2607,1.2636,1.2663,1.2684,1.2718,1.2742,1.2754,1.2759,1.2783,1.2781,1.278,1.2782,1.2795,1.2795,1.2794,1.28,1.28,1.28,0,0,1.2413,1.2438,1.2457,1.248,1.2516,1.2539,1.2544,1.2584,1.2599,1.2627,1.2649,1.267,1.2712,1.2735,1.2752,1.2757,1.2773,1.2764,1.2756,1.2768,1.2768,1.2767,1.2769,1.2769,1.2765,1.2765,1.2765,0,1.2398,1.2434,1.2464,1.2487,1.2505,1.2533,1.2551,1.2572,1.2614,1.2626,1.2631,1.2685,1.271,1.274,1.2741,1.2754,1.2759,1.276,1.2765,1.2765,1.2766,1.2767,1.2768,1.2764,1.2764,1.2764,1.2764,0,1.2414,1.2439,1.2449,1.249,1.2509,1.253,1.2562,1.2578,1.2595,1.2617,1.2644,1.2675,1.2706,1.2715,1.2732,1.2747,1.2749,1.2759,1.2768,1.2763,1.2766,1.2766,1.2762,1.2762,1.2763,1.2763,0,0,1.2394,1.245,1.2454,1.2472,1.2513,1.2533,1.2554,1.2585,1.2598,1.2626,1.2644,1.2679,1.2689,1.2708,1.2728,1.2738,1.274,1.2747,1.2749,1.2745,1.2758,1.275,1.275,1.275,1.275,1.2751,1.2755,0,1.2397,1.2437,1.2464,1.2493,1.2516,1.2542,1.2561,1.2587,1.2608,1.263,1.2653,1.2678,1.2689,1.27,1.2712,1.2737,1.2743,1.2737,1.2767,1.2767,1.2758,1.2751,1.2743,1.2746,1.2756,1.2756,1.2756,0,1.2406,1.2434,1.2465,1.2503,1.2514,1.253,1.2561,1.2581,1.2612,1.2626,1.2647,1.2667,1.269,1.2696,1.2727,1.2723,1.2736,1.275,1.2751,1.2755,1.2762,1.2755,1.2747,1.2747,1.2758,1.2758,1.2758,0,1.2388,1.2433,1.2457,1.2472,1.2517,1.2528,1.2547,1.2578,1.2595,1.2621,1.2632,1.2661,1.2677,1.2698,1.2725,1.2727,1.2753,1.2762,1.2765,1.2764,1.277,1.2769,1.2764,1.2778,1.2778,1.2778,1.2778,0,1.2389,1.2407,1.245,1.2465,1.2485,1.2516,1.2535,1.2556,1.2583,1.2602,1.2627,1.2644,1.2678,1.2699,1.272,1.2742,1.2749,1.2761,1.2766,1.2759,1.2757,1.2768,1.2769,1.2778,1.2778,1.2778,1.2778,0,1.2373,1.2402,1.243,1.2471,1.2481,1.2495,1.2529,1.2544,1.2566,1.259,1.2597,1.2632,1.2658,1.2686,1.2722,1.2736,1.2757,1.2764,1.2747,1.275,1.2751,1.2751,1.2753,1.2755,1.2768,1.2768,1.2768,0,1.2371,1.2386,1.2428,1.2442,1.2461,1.2484,1.2502,1.2532,1.2549,1.2584,1.2595,1.2623,1.2647,1.2687,1.2715,1.2742,1.275,1.2749,1.2755,1.2747,1.275,1.2749,1.275,1.2748,1.2748,1.2747,1.2747,0,1.2365,1.2379,1.2404,1.2433,1.2453,1.2478,1.2503,1.2514,1.2549,1.2566,1.2593,1.2612,1.2648,1.2675,1.2706,1.2725,1.2742,1.2745,1.2748,1.274,1.2729,1.2735,1.2742,1.2745,1.2745,1.2746,1.2746,1.2746,1.2357,1.2371,1.2402,1.2428,1.2451,1.2474,1.249,1.2514,1.2537,1.2569,1.2585,1.2612,1.2641,1.2684,1.2702,1.2723,1.2729,1.2732,1.2733,1.2733,1.2731,1.2726,1.2729,1.2729,1.2729,1.2729,1.2729,0,1.2352,1.2373,1.2397,1.2432,1.2453,1.2467,1.2495,1.2511,1.2535,1.2561,1.2584,1.2615,1.2641,1.2671,1.2699,1.271,1.2718,1.2716,1.2715,1.2719,1.2725,1.272,1.2709,1.2709,1.2709,1.2709,1.2709,1.2709,1.2352,1.2376,1.2393,1.2428,1.245,1.2477,1.2492,1.2513,1.2534,1.2567,1.2589,1.2608,1.2636,1.2666,1.269,1.2698,1.2707,1.2703,1.2713,1.2717,1.2719,1.2721,1.2716,1.2705,1.2705,1.2706,1.2706,1.2706]},{"header":{"parameterUnit":"m.s-1","parameterCategory":1,"la1":30.2991,"la2":30.254,"lo1":-89.0895,"lo2":-89.0444,"dy":0.0017,"dx":0.0017,"nx":28,"ny":28,"refTime":"2023-09-06T03:00:00:Z","depth":0,"parameterNumber":3,"parameterNumberName":"V-component_of_WINDS"},"data":[0,0,0,0,0,0,0,0,0,0,0,0,0,0,0,0,0,0,0,0,0,0,0,0,0,0,0,0,0,0,0,0,0,0,0,0,0,0,0,0,0,0,0,0,0,0,0,0,0,0,0,0,0,0,0,0,0,0,2.6728,2.6728,0,2.6788,2.6789,2.6789,2.6768,2.6767,2.6765,2.6764,2.6822,2.6825,2.6828,0,0,0,0,0,0,0,0,0,0,0,0,0,2.659,2.6592,2.6727,2.6728,2.6729,2.6788,2.6789,2.6789,2.6768,2.6767,2.6765,2.6763,2.6821,2.6825,2.6828,0,0,0,0,0,0,0,0,0,0,0,0,0,2.665,2.6593,2.6727,2.6726,2.6726,2.6788,2.6789,2.679,2.6769,2.6767,2.6765,2.6763,2.682,2.6824,2.6829,2.6894,0,0,2.6841,2.6843,0,0,0,0,0,0,0,0,2.6646,2.6655,2.6725,2.6726,2.6726,2.6768,2.6761,2.6825,2.6769,2.6752,2.6764,2.6762,2.6806,2.6811,2.6827,2.6897,2.69,2.6842,2.6844,2.6846,2.6847,0,0,0,0,0,0,0,2.6642,2.6652,2.6751,2.6726,2.6727,2.672,2.6727,2.6773,2.6789,2.6754,2.6752,2.676,2.6806,2.6823,2.6828,2.69,2.6842,2.6845,2.6848,2.685,2.7026,2.7028,0,0,0,0,0,0,2.6638,2.6649,2.6749,2.6753,2.6681,2.6725,2.6732,2.6757,2.6789,2.6792,2.6762,2.6759,2.6817,2.6823,2.683,2.6908,2.6846,2.685,2.6852,2.7024,2.7026,2.7029,0,0,0,0,0,0,2.6635,2.6647,2.6747,2.6701,2.6713,2.6729,2.6758,2.6759,2.6776,2.6795,2.6797,2.6776,2.6815,2.6824,2.6878,2.6909,2.6852,2.6856,2.7021,2.7025,2.7028,2.7065,0,0,0,0,0,0,2.6631,2.6646,2.6673,2.6701,2.6715,2.6796,2.676,2.6762,2.6784,2.6781,2.6809,2.6812,2.6814,2.6872,2.6883,2.6914,2.6859,2.7018,2.7023,2.7027,2.7061,2.7069,2.7076,0,0,0,0,0,2.6627,2.668,2.6674,2.6686,2.6749,2.6798,2.6806,2.6808,2.6787,2.6812,2.6824,2.6811,2.6905,2.6878,2.6889,2.6923,2.7016,2.7022,2.7026,2.7057,2.7067,2.7076,0,0,0,0,0,0,2.6654,2.6684,2.6678,2.6743,2.6768,2.6794,2.6827,2.6819,2.685,2.6845,2.6846,2.6853,2.6908,2.6921,2.6891,2.6987,2.6957,2.6964,2.6977,2.6986,2.6994,2.6989,2.6862,0,0,0,0,0,2.6668,2.6707,2.673,2.6785,2.6798,2.681,2.6832,2.6832,2.6857,2.6868,2.6883,2.6908,2.6942,2.6965,2.6998,2.7063,2.7068,2.7091,2.7099,2.7105,2.7111,2.7144,2.7154,2.7045,2.7045,2.7045,0,0,2.6697,2.6718,2.6742,2.6791,2.6811,2.6849,2.682,2.6862,2.689,2.6874,2.6926,2.6938,2.6965,2.7025,2.7052,2.7037,2.7142,2.7111,2.7116,2.7118,2.715,2.7161,2.717,2.7048,2.7047,2.7047,0,0,2.6768,2.6789,2.6836,2.6856,2.6887,2.6894,2.6906,2.6933,2.6941,2.6994,2.6982,2.7014,2.7075,2.7094,2.7112,2.719,2.7178,2.72,2.7239,2.7271,2.728,2.7288,2.7314,2.7324,2.7206,2.7207,2.7207,0,2.68,2.6858,2.6861,2.6904,2.6926,2.6914,2.6961,2.698,2.7019,2.7033,2.7016,2.7091,2.7108,2.7171,2.719,2.7205,2.7217,2.7197,2.7279,2.7287,2.7294,2.7319,2.7329,2.7209,2.7209,2.7208,2.7208,0,2.6894,2.6935,2.697,2.7008,2.7034,2.7078,2.7087,2.7111,2.7109,2.7118,2.717,2.7191,2.7227,2.7242,2.724,2.7305,2.7294,2.7279,2.7248,2.7306,2.733,2.734,2.7212,2.7211,2.7211,2.721,0,0,2.6985,2.7025,2.7037,2.7054,2.7086,2.7117,2.716,2.7197,2.7217,2.7244,2.7279,2.733,2.7316,2.7336,2.7335,2.7364,2.7422,2.7344,2.7345,2.7357,2.7493,2.7504,2.7515,2.7415,2.7417,2.7419,2.749,0,2.7058,2.7136,2.7139,2.7209,2.7246,2.7235,2.7272,2.7295,2.7304,2.7335,2.7345,2.738,2.7359,2.7371,2.7399,2.7409,2.7449,2.7404,2.7446,2.7448,2.7439,2.7527,2.7539,2.7606,2.7499,2.7501,2.7502,0,2.7154,2.7185,2.7259,2.7284,2.73,2.7333,2.7366,2.7397,2.7422,2.7426,2.7449,2.7444,2.7486,2.7455,2.7513,2.7482,2.75,2.7507,2.751,2.7513,2.7478,2.7531,2.7627,2.7636,2.7517,2.7516,2.7515,0,2.7211,2.7271,2.7322,2.7337,2.7369,2.7392,2.7406,2.7429,2.7451,2.7479,2.7492,2.7525,2.7543,2.7568,2.7571,2.7548,2.7628,2.7598,2.7632,2.7632,2.7648,2.7647,2.7747,2.7662,2.7662,2.7662,2.7661,0,2.7292,2.7337,2.7348,2.738,2.7429,2.7432,2.7481,2.7493,2.7513,2.7546,2.7538,2.7568,2.7572,2.7602,2.7605,2.7652,2.766,2.7664,2.7664,2.7664,2.7663,2.7674,2.7669,2.7664,2.7664,2.7663,2.7663,0,2.7363,2.7373,2.7428,2.7453,2.7461,2.7496,2.7517,2.7546,2.7554,2.7595,2.7605,2.7618,2.7653,2.766,2.7702,2.7703,2.7759,2.7754,2.775,2.7749,2.7782,2.7779,2.7892,2.7906,2.7813,2.7814,2.7815,0,2.7414,2.7448,2.7477,2.7499,2.7514,2.7549,2.7571,2.7575,2.7597,2.7628,2.7653,2.7688,2.7716,2.7774,2.7785,2.7817,2.7813,2.785,2.7818,2.7816,2.7812,2.7809,2.7812,2.7856,2.7857,2.7858,2.7859,0,2.7501,2.7504,2.7536,2.757,2.7596,2.7623,2.7648,2.7665,2.7672,2.7698,2.7735,2.7757,2.7799,2.7834,2.7865,2.7878,2.7869,2.7869,2.7878,2.7878,2.7874,2.7875,2.7766,2.7866,2.7866,2.7865,2.7865,2.7864,2.7563,2.7593,2.7618,2.7653,2.7672,2.7696,2.7724,2.7736,2.7767,2.7803,2.7803,2.7843,2.7865,2.7907,2.7921,2.7952,2.7939,2.7953,2.7957,2.796,2.7962,2.787,2.7958,2.7957,2.7957,2.7957,2.7957,0,2.7649,2.7665,2.7697,2.7733,2.776,2.7751,2.7777,2.7801,2.7836,2.7859,2.7887,2.7928,2.7961,2.7976,2.8008,2.8029,2.8026,2.8037,2.8035,2.8038,2.7972,2.796,2.8039,2.8039,2.8039,2.8039,2.8039,2.8039,2.7697,2.7746,2.7752,2.781,2.7824,2.7864,2.788,2.7901,2.7918,2.7965,2.7993,2.8003,2.8021,2.8055,2.8084,2.8087,2.8099,2.8112,2.8113,2.8051,2.8043,2.8035,2.8023,2.8115,2.8115,2.8176,2.8177,2.8177]}]]